,,Stat6,,Stat2,,Stat8,,Stat9,,Stat10,,Wind1,,Wind1,
time,status,PA1M_AVG,status,PR1M_SUM,status,RH1M_AVG,status,SR1M_AVG,status,TA1M_AVG,status,W1dAve1m,status,W1sAve1m,
2009-07-15, 00:00:00,VALID,917.901,VALID,0,VALID,99.0949,VALID,-0.0169808,VALID,19.2785,VALID,23,VALID,0.00111607,
2009-07-15, 00:01:00,VALID,917.909,VALID,0,VALID,98.7935,VALID,-0.0169808,VALID,19.295,VALID,21,VALID,0,
2009-07-15, 00:02:00,VALID,917.912,VALID,0,VALID,98.8227,VALID,0.0169808,VALID,19.3045,VALID,14,VALID,0.0477431,
2009-07-15, 00:03:00,VALID,917.938,VALID,0,VALID,98.7274,VALID,0.0169808,VALID,19.3302,VALID,348,VALID,0,
2009-07-15, 00:04:00,VALID,917.925,VALID,0,VALID,98.6549,VALID,0,VALID,19.3466,VALID,336,VALID,0,
2009-07-15, 00:05:00,VALID,917.904,VALID,0,VALID,98.6269,VALID,-0.0169808,VALID,19.3372,VALID,26,VALID,0.116629,
2009-07-15, 00:06:00,VALID,917.897,VALID,0,VALID,98.8901,VALID,-0.0679233,VALID,19.3466,VALID,23,VALID,0.0176235,
2009-07-15, 00:07:00,VALID,917.904,VALID,0,VALID,99.1419,VALID,0,VALID,19.4018,VALID,16,VALID,0.169567,
2009-07-15, 00:08:00,VALID,917.913,VALID,0,VALID,99.0961,VALID,-0.0169808,VALID,19.4345,VALID,17,VALID,0,
2009-07-15, 00:09:00,VALID,917.924,VALID,0,VALID,99.0427,VALID,0,VALID,19.4565,VALID,9,VALID,0.0435014,
2009-07-15, 00:10:00,VALID,917.934,VALID,0,VALID,98.9855,VALID,0,VALID,19.5061,VALID,8,VALID,0,
2009-07-15, 00:11:00,VALID,917.922,VALID,0,VALID,98.6994,VALID,0.0169808,VALID,19.4889,VALID,8,VALID,0,
2009-07-15, 00:12:00,VALID,917.9,VALID,0,VALID,98.5888,VALID,-0.0849042,VALID,19.4809,VALID,2,VALID,0,
2009-07-15, 00:13:00,VALID,917.899,VALID,0,VALID,98.5989,VALID,-0.135847,VALID,19.4717,VALID,2,VALID,0,
2009-07-15, 00:14:00,VALID,917.873,VALID,0,VALID,98.7719,VALID,-0.118866,VALID,19.4684,VALID,2,VALID,0,
2009-07-15, 00:15:00,VALID,917.862,VALID,0,VALID,98.8024,VALID,-0.135847,VALID,19.4911,VALID,2,VALID,0,
2009-07-15, 00:16:00,VALID,917.849,VALID,0,VALID,98.7121,VALID,-0.118866,VALID,19.4909,VALID,2,VALID,0,
2009-07-15, 00:17:00,VALID,917.855,VALID,0,VALID,98.6549,VALID,-0.118866,VALID,19.5106,VALID,1,VALID,0,
2009-07-15, 00:18:00,VALID,917.849,VALID,0,VALID,98.6193,VALID,-0.101885,VALID,19.5201,VALID,9,VALID,0.00177557,
2009-07-15, 00:19:00,VALID,917.853,VALID,0,VALID,98.6142,VALID,-0.118866,VALID,19.5455,VALID,9,VALID,0.0247713,
2009-07-15, 00:20:00,VALID,917.859,VALID,0,VALID,98.5366,VALID,-0.101885,VALID,19.575,VALID,4,VALID,0.0012718,
2009-07-15, 00:21:00,VALID,917.864,VALID,0,VALID,98.5875,VALID,-0.101885,VALID,19.6012,VALID,347,VALID,0,
2009-07-15, 00:22:00,VALID,917.863,VALID,0,VALID,98.5913,VALID,-0.135847,VALID,19.6434,VALID,347,VALID,0,
2009-07-15, 00:23:00,VALID,917.858,VALID,0,VALID,98.4311,VALID,-0.0679233,VALID,19.6621,VALID,2,VALID,0,
2009-07-15, 00:24:00,VALID,917.85,VALID,0,VALID,98.276,VALID,-0.101885,VALID,19.6686,VALID,8,VALID,0,
2009-07-15, 00:25:00,VALID,917.854,VALID,0,VALID,98.4616,VALID,-0.101885,VALID,19.6688,VALID,14,VALID,0,
2009-07-15, 00:26:00,VALID,917.841,VALID,0,VALID,98.6435,VALID,-0.0849042,VALID,19.6891,VALID,11,VALID,0,
2009-07-15, 00:27:00,VALID,917.812,VALID,0,VALID,98.6854,VALID,-0.0339617,VALID,19.714,VALID,20,VALID,0,
2009-07-15, 00:28:00,VALID,917.81,VALID,0,VALID,98.6384,VALID,-0.0849042,VALID,19.7332,VALID,27,VALID,0,
2009-07-15, 00:29:00,VALID,917.791,VALID,0,VALID,98.5303,VALID,-0.0849042,VALID,19.7395,VALID,11,VALID,0,
2009-07-15, 00:30:00,VALID,917.788,VALID,0,VALID,98.3167,VALID,-0.0849042,VALID,19.7265,VALID,351,VALID,0,
2009-07-15, 00:31:00,VALID,917.795,VALID,0,VALID,98.3891,VALID,-0.0679233,VALID,19.7395,VALID,6,VALID,0,
2009-07-15, 00:32:00,VALID,917.807,VALID,0,VALID,98.4286,VALID,-0.0849042,VALID,19.7527,VALID,14,VALID,0,
2009-07-15, 00:33:00,VALID,917.819,VALID,0,VALID,98.3484,VALID,-0.0679233,VALID,19.7622,VALID,8,VALID,0,
2009-07-15, 00:34:00,VALID,917.818,VALID,0,VALID,98.4095,VALID,-0.0509425,VALID,19.7622,VALID,359,VALID,0,
2009-07-15, 00:35:00,VALID,917.824,VALID,0,VALID,98.487,VALID,-0.101885,VALID,19.7625,VALID,359,VALID,0,
2009-07-15, 00:36:00,VALID,917.816,VALID,0,VALID,98.4476,VALID,-0.0679233,VALID,19.756,VALID,360,VALID,0,
2009-07-15, 00:37:00,VALID,917.8,VALID,0,VALID,98.5188,VALID,-0.0339617,VALID,19.7332,VALID,4,VALID,0,
2009-07-15, 00:38:00,VALID,917.804,VALID,0,VALID,98.4476,VALID,-0.0849042,VALID,19.7008,VALID,354,VALID,0,
2009-07-15, 00:39:00,VALID,917.8,VALID,0,VALID,98.6447,VALID,-0.0339617,VALID,19.6903,VALID,10,VALID,0,
2009-07-15, 00:40:00,VALID,917.789,VALID,0,VALID,98.6854,VALID,-0.0339617,VALID,19.6711,VALID,9,VALID,0,
2009-07-15, 00:41:00,VALID,917.774,VALID,0,VALID,98.7808,VALID,-0.0849042,VALID,19.6551,VALID,9,VALID,0,
2009-07-15, 00:42:00,VALID,917.781,VALID,0,VALID,98.9512,VALID,-0.0169808,VALID,19.6519,VALID,9,VALID,0,
2009-07-15, 00:43:00,VALID,917.768,VALID,0,VALID,99.0631,VALID,-0.0679233,VALID,19.6419,VALID,9,VALID,0,
2009-07-15, 00:44:00,VALID,917.764,VALID,0,VALID,99.2335,VALID,-0.0339617,VALID,19.6586,VALID,13,VALID,0,
2009-07-15, 00:45:00,VALID,917.743,VALID,0,VALID,99.2284,VALID,-0.0169808,VALID,19.6391,VALID,1,VALID,0.056686,
2009-07-15, 00:46:00,VALID,917.752,VALID,0,VALID,99.325,VALID,-0.0339617,VALID,19.6391,VALID,360,VALID,0,
2009-07-15, 00:47:00,VALID,917.747,VALID,0,VALID,99.4013,VALID,-0.0509425,VALID,19.6359,VALID,360,VALID,0,
2009-07-15, 00:48:00,VALID,917.742,VALID,0,VALID,99.4764,VALID,-0.0339617,VALID,19.6484,VALID,360,VALID,0,
2009-07-15, 00:49:00,VALID,917.735,VALID,0,VALID,99.4242,VALID,-0.0169808,VALID,19.6579,VALID,359,VALID,0,
2009-07-15, 00:50:00,VALID,917.705,VALID,0,VALID,99.5463,VALID,-0.0849042,VALID,19.6679,VALID,14,VALID,0,
2009-07-15, 00:51:00,VALID,917.673,VALID,0,VALID,99.4344,VALID,-0.0849042,VALID,19.6813,VALID,18,VALID,0,
2009-07-15, 00:52:00,VALID,917.643,VALID,0,VALID,99.4458,VALID,-0.0169808,VALID,19.6686,VALID,19,VALID,0,
2009-07-15, 00:53:00,VALID,917.628,VALID,0,VALID,99.4039,VALID,-0.0679233,VALID,19.6391,VALID,18,VALID,0,
2009-07-15, 00:54:00,VALID,917.598,VALID,0,VALID,99.5679,VALID,-0.0339617,VALID,19.6222,VALID,15,VALID,0,
2009-07-15, 00:55:00,VALID,917.578,VALID,0,VALID,99.634,VALID,-0.0169808,VALID,19.6292,VALID,10,VALID,0,
2009-07-15, 00:56:00,VALID,917.569,VALID,0,VALID,99.6582,VALID,-0.0679233,VALID,19.6456,VALID,350,VALID,0,
2009-07-15, 00:57:00,VALID,917.539,VALID,0,VALID,99.5463,VALID,-0.101885,VALID,19.6489,VALID,356,VALID,0,
2009-07-15, 00:58:00,VALID,917.516,VALID,0,VALID,99.5425,VALID,-0.0849042,VALID,19.6489,VALID,2,VALID,0,
2009-07-15, 00:59:00,VALID,917.493,VALID,0,VALID,99.5234,VALID,-0.0849042,VALID,19.6654,VALID,15,VALID,0,
2009-07-15, 01:00:00,VALID,917.477,VALID,0,VALID,99.25,VALID,-0.0679233,VALID,19.6391,VALID,37,VALID,0,
2009-07-15, 01:01:00,VALID,917.461,VALID,0,VALID,99.1966,VALID,-0.0849042,VALID,19.5997,VALID,23,VALID,0,
2009-07-15, 01:02:00,VALID,917.444,VALID,0,VALID,99.3288,VALID,-0.0679233,VALID,19.6037,VALID,40,VALID,0,
2009-07-15, 01:03:00,VALID,917.407,VALID,0,VALID,99.2347,VALID,-0.0509425,VALID,19.5775,VALID,52,VALID,0,
2009-07-15, 01:04:00,VALID,917.385,VALID,0,VALID,99.1012,VALID,-0.0339617,VALID,19.5513,VALID,59,VALID,0,
2009-07-15, 01:05:00,VALID,917.356,VALID,0,VALID,99.072,VALID,-0.0339617,VALID,19.5478,VALID,47,VALID,0,
2009-07-15, 01:06:00,VALID,917.353,VALID,0,VALID,99.1038,VALID,-0.0679233,VALID,19.5386,VALID,33,VALID,0,
2009-07-15, 01:07:00,VALID,917.336,VALID,0,VALID,99.1241,VALID,-0.0679233,VALID,19.5416,VALID,37,VALID,0,
2009-07-15, 01:08:00,VALID,917.331,VALID,0,VALID,99.1457,VALID,-0.0679233,VALID,19.5513,VALID,40,VALID,0,
2009-07-15, 01:09:00,VALID,917.329,VALID,0,VALID,99.1152,VALID,-0.0339617,VALID,19.5645,VALID,29,VALID,0,
2009-07-15, 01:10:00,VALID,917.323,VALID,0,VALID,99.1928,VALID,-0.0339617,VALID,19.5613,VALID,33,VALID,0,
2009-07-15, 01:11:00,VALID,917.324,VALID,0,VALID,99.2487,VALID,-0.0679233,VALID,19.5747,VALID,44,VALID,0,
2009-07-15, 01:12:00,VALID,917.322,VALID,0,VALID,99.2386,VALID,-0.0509425,VALID,19.558,VALID,41,VALID,0,
2009-07-15, 01:13:00,VALID,917.318,VALID,0,VALID,99.4204,VALID,-0.0339617,VALID,19.558,VALID,28,VALID,0,
2009-07-15, 01:14:00,VALID,917.32,VALID,0,VALID,99.4954,VALID,-0.0849042,VALID,19.5578,VALID,20,VALID,0,
2009-07-15, 01:15:00,VALID,917.307,VALID,0,VALID,99.5387,VALID,-0.0339617,VALID,19.5775,VALID,17,VALID,0,
2009-07-15, 01:16:00,VALID,917.296,VALID,0,VALID,99.5399,VALID,-0.0509425,VALID,19.5965,VALID,11,VALID,0,
2009-07-15, 01:17:00,VALID,917.269,VALID,0,VALID,99.4687,VALID,-0.0679233,VALID,19.6072,VALID,20,VALID,0,
2009-07-15, 01:18:00,VALID,917.255,VALID,0,VALID,99.4865,VALID,-0.0679233,VALID,19.5807,VALID,25,VALID,0,
2009-07-15, 01:19:00,VALID,917.238,VALID,0,VALID,99.6607,VALID,-0.0339617,VALID,19.558,VALID,29,VALID,0,
2009-07-15, 01:20:00,VALID,917.228,VALID,0,VALID,99.826,VALID,-0.0339617,VALID,19.5513,VALID,16,VALID,0,
2009-07-15, 01:21:00,VALID,917.227,VALID,0,VALID,99.973,VALID,-0.0339617,VALID,19.564,VALID,23,VALID,0,
2009-07-15, 01:22:00,VALID,917.217,VALID,0,VALID,99.9196,VALID,-0.0509425,VALID,19.5867,VALID,28,VALID,0,
2009-07-15, 01:23:00,VALID,917.203,VALID,0,VALID,99.7752,VALID,-0.0169808,VALID,19.56,VALID,27,VALID,0,
2009-07-15, 01:24:00,VALID,917.198,VALID,0,VALID,99.8795,VALID,-0.101885,VALID,19.561,VALID,27,VALID,0,
2009-07-15, 01:25:00,VALID,917.204,VALID,0,VALID,99.9967,VALID,-0.0509425,VALID,19.5708,VALID,28,VALID,0,
2009-07-15, 01:26:00,VALID,917.197,VALID,0,VALID,100,VALID,-0.0339617,VALID,19.5935,VALID,33,VALID,0,
2009-07-15, 01:27:00,VALID,917.189,VALID,0,VALID,100,VALID,-0.0509425,VALID,19.6489,VALID,59,VALID,0,
2009-07-15, 01:28:00,VALID,917.199,VALID,0,VALID,100,VALID,-0.0339617,VALID,19.6748,VALID,65,VALID,0.0454728,
2009-07-15, 01:29:00,VALID,917.227,VALID,0,VALID,99.9763,VALID,-0.0169808,VALID,19.7075,VALID,59,VALID,0.00106534,
2009-07-15, 01:30:00,VALID,917.235,VALID,0,VALID,99.7548,VALID,-0.0339617,VALID,19.7008,VALID,52,VALID,0.0763494,
2009-07-15, 01:31:00,VALID,917.243,VALID,0,VALID,99.6289,VALID,-0.0509425,VALID,19.6651,VALID,47,VALID,0,
2009-07-15, 01:32:00,VALID,917.236,VALID,0,VALID,99.723,VALID,-0.0849042,VALID,19.6524,VALID,47,VALID,0,
2009-07-15, 01:33:00,VALID,917.222,VALID,0,VALID,99.9733,VALID,-0.0339617,VALID,19.6584,VALID,49,VALID,0,
2009-07-15, 01:34:00,VALID,917.203,VALID,0,VALID,99.9463,VALID,-0.0169808,VALID,19.6586,VALID,66,VALID,0,
2009-07-15, 01:35:00,VALID,917.195,VALID,0,VALID,100,VALID,-0.0169808,VALID,19.6651,VALID,67,VALID,0,
2009-07-15, 01:36:00,VALID,917.175,VALID,0,VALID,99.999,VALID,-0.0339617,VALID,19.6619,VALID,67,VALID,0,
2009-07-15, 01:37:00,VALID,917.162,VALID,0,VALID,99.9941,VALID,-0.0339617,VALID,19.6424,VALID,67,VALID,0,
2009-07-15, 01:38:00,VALID,917.15,VALID,0,VALID,99.8553,VALID,0,VALID,19.6162,VALID,67,VALID,0,
2009-07-15, 01:39:00,VALID,917.145,VALID,0,VALID,99.8853,VALID,-0.0169808,VALID,19.5708,VALID,67,VALID,0,
2009-07-15, 01:40:00,VALID,917.14,VALID,0,VALID,100,VALID,-0.0339617,VALID,19.5678,VALID,58,VALID,0,
2009-07-15, 01:41:00,VALID,917.132,VALID,0,VALID,100,VALID,-0.0169808,VALID,19.5483,VALID,43,VALID,0,
2009-07-15, 01:42:00,VALID,917.124,VALID,0,VALID,100,VALID,-0.0679233,VALID,19.5451,VALID,32,VALID,0,
2009-07-15, 01:43:00,VALID,917.12,VALID,0,VALID,100,VALID,-0.0339617,VALID,19.5805,VALID,26,VALID,0,
2009-07-15, 01:44:00,VALID,917.095,VALID,0,VALID,100,VALID,-0.0169808,VALID,19.6164,VALID,25,VALID,0,
2009-07-15, 01:45:00,VALID,917.085,VALID,0,VALID,100,VALID,-0.0169808,VALID,19.6322,VALID,25,VALID,0,
2009-07-15, 01:46:00,VALID,917.061,VALID,0,VALID,99.999,VALID,0,VALID,19.583,VALID,26,VALID,0,
2009-07-15, 01:47:00,VALID,917.048,VALID,0,VALID,100,VALID,-0.0509425,VALID,19.5807,VALID,31,VALID,0,
2009-07-15, 01:48:00,VALID,917.051,VALID,0,VALID,100,VALID,-0.0509425,VALID,19.5905,VALID,34,VALID,0,
2009-07-15, 01:49:00,VALID,917.038,VALID,0,VALID,100,VALID,-0.0849042,VALID,19.5837,VALID,34,VALID,0,
2009-07-15, 01:50:00,VALID,917.017,VALID,0,VALID,100,VALID,-0.0339617,VALID,19.5605,VALID,36,VALID,0,
2009-07-15, 01:51:00,VALID,916.992,VALID,0,VALID,100,VALID,-0.101885,VALID,19.5645,VALID,52,VALID,0,
2009-07-15, 01:52:00,VALID,916.975,VALID,0,VALID,100,VALID,-0.0679233,VALID,19.5613,VALID,56,VALID,0,
2009-07-15, 01:53:00,VALID,916.971,VALID,0,VALID,100,VALID,-0.0509425,VALID,19.5416,VALID,56,VALID,0,
2009-07-15, 01:54:00,VALID,916.932,VALID,0,VALID,100,VALID,0,VALID,19.5356,VALID,57,VALID,0,
2009-07-15, 01:55:00,VALID,916.89,VALID,0,VALID,100,VALID,-0.0679233,VALID,19.5223,VALID,63,VALID,0,
2009-07-15, 01:56:00,VALID,916.865,VALID,0,VALID,100,VALID,-0.0339617,VALID,19.5578,VALID,77,VALID,0,
2009-07-15, 01:57:00,VALID,916.818,VALID,0,VALID,100,VALID,-0.0339617,VALID,19.5965,VALID,86,VALID,0,
2009-07-15, 01:58:00,VALID,916.781,VALID,0,VALID,100,VALID,-0.0679233,VALID,19.6589,VALID,96,VALID,0,
2009-07-15, 01:59:00,VALID,916.765,VALID,0,VALID,100,VALID,-0.0509425,VALID,19.6713,VALID,97,VALID,0,
2009-07-15, 02:00:00,VALID,916.763,VALID,0,VALID,100,VALID,-0.0509425,VALID,19.6716,VALID,103,VALID,0.00130208,
2009-07-15, 02:01:00,VALID,916.765,VALID,0,VALID,99.999,VALID,-0.0509425,VALID,19.6292,VALID,140,VALID,0.074673,
2009-07-15, 02:02:00,VALID,916.77,VALID,0,VALID,99.8477,VALID,-0.0509425,VALID,19.5513,VALID,141,VALID,0.0010016,
2009-07-15, 02:03:00,VALID,916.778,VALID,0,VALID,99.9163,VALID,-0.0339617,VALID,19.4767,VALID,153,VALID,0,
2009-07-15, 02:04:00,VALID,916.782,VALID,0,VALID,99.9916,VALID,-0.0849042,VALID,19.402,VALID,157,VALID,0,
2009-07-15, 02:05:00,VALID,916.8,VALID,0,VALID,100,VALID,-0.0169808,VALID,19.3439,VALID,171,VALID,0,
2009-07-15, 02:06:00,VALID,916.796,VALID,0,VALID,100,VALID,-0.0679233,VALID,19.3084,VALID,158,VALID,0,
2009-07-15, 02:07:00,VALID,916.805,VALID,0,VALID,100,VALID,-0.0679233,VALID,19.2825,VALID,154,VALID,0,
2009-07-15, 02:08:00,VALID,916.789,VALID,0,VALID,100,VALID,-0.0509425,VALID,19.256,VALID,176,VALID,0,
2009-07-15, 02:09:00,VALID,916.787,VALID,0,VALID,100,VALID,-0.0339617,VALID,19.2466,VALID,177,VALID,0,
2009-07-15, 02:10:00,VALID,916.776,VALID,0,VALID,100,VALID,-0.0339617,VALID,19.2368,VALID,174,VALID,0,
2009-07-15, 02:11:00,VALID,916.758,VALID,0,VALID,100,VALID,-0.0679233,VALID,19.2336,VALID,164,VALID,0,
2009-07-15, 02:12:00,VALID,916.765,VALID,0,VALID,100,VALID,-0.0679233,VALID,19.2011,VALID,153,VALID,0,
2009-07-15, 02:13:00,VALID,916.769,VALID,0,VALID,100,VALID,-0.0679233,VALID,19.2111,VALID,155,VALID,0,
2009-07-15, 02:14:00,VALID,916.787,VALID,0,VALID,100,VALID,-0.0169808,VALID,19.1872,VALID,159,VALID,0,
2009-07-15, 02:15:00,VALID,916.793,VALID,0,VALID,100,VALID,-0.0679233,VALID,19.1882,VALID,159,VALID,0,
2009-07-15, 02:16:00,VALID,916.807,VALID,0,VALID,100,VALID,-0.0679233,VALID,19.1754,VALID,159,VALID,0,
2009-07-15, 02:17:00,VALID,916.804,VALID,0,VALID,100,VALID,-0.0849042,VALID,19.1557,VALID,159,VALID,0,
2009-07-15, 02:18:00,VALID,916.82,VALID,0,VALID,100,VALID,-0.0169808,VALID,19.146,VALID,158,VALID,0,
2009-07-15, 02:19:00,VALID,916.821,VALID,0,VALID,100,VALID,-0.0339617,VALID,19.1487,VALID,158,VALID,0,
2009-07-15, 02:20:00,VALID,916.816,VALID,0,VALID,100,VALID,-0.0339617,VALID,19.1427,VALID,158,VALID,0,
2009-07-15, 02:21:00,VALID,916.799,VALID,0,VALID,100,VALID,-0.0679233,VALID,19.1462,VALID,158,VALID,0,
2009-07-15, 02:22:00,VALID,916.761,VALID,0,VALID,100,VALID,-0.0679233,VALID,19.1457,VALID,154,VALID,0,
2009-07-15, 02:23:00,VALID,916.739,VALID,0,VALID,100,VALID,-0.0679233,VALID,19.1425,VALID,143,VALID,0,
2009-07-15, 02:24:00,VALID,916.732,VALID,0,VALID,100,VALID,-0.0169808,VALID,19.123,VALID,143,VALID,0,
2009-07-15, 02:25:00,VALID,916.738,VALID,0,VALID,100,VALID,-0.0679233,VALID,19.1298,VALID,143,VALID,0,
2009-07-15, 02:26:00,VALID,916.741,VALID,0,VALID,100,VALID,-0.0509425,VALID,19.146,VALID,143,VALID,0,
2009-07-15, 02:27:00,VALID,916.741,VALID,0,VALID,100,VALID,-0.0339617,VALID,19.1652,VALID,143,VALID,0,
2009-07-15, 02:28:00,VALID,916.714,VALID,0,VALID,100,VALID,-0.0169808,VALID,19.1842,VALID,143,VALID,0,
2009-07-15, 02:29:00,VALID,916.684,VALID,0,VALID,100,VALID,-0.0339617,VALID,19.2363,VALID,143,VALID,0,
2009-07-15, 02:30:00,VALID,916.69,VALID,0,VALID,100,VALID,-0.0509425,VALID,19.2526,VALID,143,VALID,0,
2009-07-15, 02:31:00,VALID,916.679,VALID,0,VALID,100,VALID,-0.0509425,VALID,19.2426,VALID,143,VALID,0,
2009-07-15, 02:32:00,VALID,916.663,VALID,0,VALID,100,VALID,-0.0169808,VALID,19.2331,VALID,143,VALID,0,
2009-07-15, 02:33:00,VALID,916.648,VALID,0,VALID,100,VALID,-0.0509425,VALID,19.2104,VALID,143,VALID,0,
2009-07-15, 02:34:00,VALID,916.656,VALID,0,VALID,100,VALID,-0.0849042,VALID,19.1033,VALID,143,VALID,0,
2009-07-15, 02:35:00,VALID,916.658,VALID,0,VALID,100,VALID,-0.0169808,VALID,18.9838,VALID,130,VALID,0,
2009-07-15, 02:36:00,VALID,916.677,VALID,0,VALID,100,VALID,-0.101885,VALID,18.9122,VALID,69,VALID,0,
2009-07-15, 02:37:00,VALID,916.658,VALID,0,VALID,100,VALID,-0.0509425,VALID,18.876,VALID,69,VALID,0,
2009-07-15, 02:38:00,VALID,916.659,VALID,0,VALID,100,VALID,-0.0339617,VALID,18.8503,VALID,69,VALID,0,
2009-07-15, 02:39:00,VALID,916.659,VALID,0,VALID,100,VALID,-0.0169808,VALID,18.8371,VALID,38,VALID,0,
2009-07-15, 02:40:00,VALID,916.656,VALID,0,VALID,100,VALID,-0.0339617,VALID,18.8633,VALID,8,VALID,0,
2009-07-15, 02:41:00,VALID,916.648,VALID,0,VALID,100,VALID,-0.0169808,VALID,18.876,VALID,8,VALID,0,
2009-07-15, 02:42:00,VALID,916.63,VALID,0,VALID,100,VALID,-0.0509425,VALID,18.8792,VALID,8,VALID,0,
2009-07-15, 02:43:00,VALID,916.632,VALID,0,VALID,100,VALID,-0.0849042,VALID,18.8987,VALID,8,VALID,0,
2009-07-15, 02:44:00,VALID,916.651,VALID,0,VALID,100,VALID,-0.0509425,VALID,18.9114,VALID,8,VALID,0,
2009-07-15, 02:45:00,VALID,916.649,VALID,0,VALID,100,VALID,-0.0169808,VALID,18.9249,VALID,7,VALID,0,
2009-07-15, 02:46:00,VALID,916.66,VALID,0,VALID,100,VALID,-0.0339617,VALID,18.9441,VALID,6,VALID,0,
2009-07-15, 02:47:00,VALID,916.674,VALID,0,VALID,100,VALID,-0.0679233,VALID,18.9833,VALID,6,VALID,0,
2009-07-15, 02:48:00,VALID,916.679,VALID,0,VALID,100,VALID,-0.0169808,VALID,18.996,VALID,6,VALID,0,
2009-07-15, 02:49:00,VALID,916.68,VALID,0,VALID,100,VALID,-0.0509425,VALID,19.025,VALID,355,VALID,0,
2009-07-15, 02:50:00,VALID,916.681,VALID,0,VALID,100,VALID,-0.0339617,VALID,19.0317,VALID,295,VALID,0,
2009-07-15, 02:51:00,VALID,916.68,VALID,0,VALID,100,VALID,-0.0509425,VALID,18.9831,VALID,295,VALID,0,
2009-07-15, 02:52:00,VALID,916.674,VALID,0,VALID,100,VALID,-0.0169808,VALID,18.9372,VALID,295,VALID,0,
2009-07-15, 02:53:00,VALID,916.671,VALID,0,VALID,100,VALID,-0.0509425,VALID,18.9182,VALID,295,VALID,0,
2009-07-15, 02:54:00,VALID,916.665,VALID,0,VALID,100,VALID,-0.0509425,VALID,18.9117,VALID,295,VALID,0,
2009-07-15, 02:55:00,VALID,916.657,VALID,0,VALID,100,VALID,0,VALID,18.8728,VALID,295,VALID,0,
2009-07-15, 02:56:00,VALID,916.652,VALID,0,VALID,100,VALID,0,VALID,18.8303,VALID,229,VALID,0,
2009-07-15, 02:57:00,VALID,916.666,VALID,0,VALID,100,VALID,-0.0339617,VALID,18.8822,VALID,141,VALID,0,
2009-07-15, 02:58:00,VALID,916.674,VALID,0,VALID,100,VALID,0,VALID,18.8887,VALID,141,VALID,0,
2009-07-15, 02:59:00,VALID,916.715,VALID,0,VALID,100,VALID,0,VALID,18.892,VALID,141,VALID,0,
2009-07-15, 03:00:00,VALID,916.738,VALID,0,VALID,100,VALID,-0.0169808,VALID,18.8987,VALID,141,VALID,0,
2009-07-15, 03:01:00,VALID,916.747,VALID,0,VALID,100,VALID,-0.0169808,VALID,18.898,VALID,141,VALID,0,
2009-07-15, 03:02:00,VALID,916.75,VALID,0,VALID,100,VALID,0,VALID,18.9047,VALID,141,VALID,0,
2009-07-15, 03:03:00,VALID,916.761,VALID,0,VALID,100,VALID,-0.0169808,VALID,18.9144,VALID,141,VALID,0,
2009-07-15, 03:04:00,VALID,916.759,VALID,0,VALID,100,VALID,0,VALID,18.9182,VALID,141,VALID,0,
2009-07-15, 03:05:00,VALID,916.762,VALID,0,VALID,100,VALID,-0.0509425,VALID,18.9414,VALID,141,VALID,0,
2009-07-15, 03:06:00,VALID,916.754,VALID,0,VALID,100,VALID,-0.0339617,VALID,18.9372,VALID,141,VALID,0,
2009-07-15, 03:07:00,VALID,916.751,VALID,0,VALID,100,VALID,0,VALID,18.9247,VALID,141,VALID,0,
2009-07-15, 03:08:00,VALID,916.745,VALID,0,VALID,100,VALID,-0.0169808,VALID,18.9541,VALID,141,VALID,0,
2009-07-15, 03:09:00,VALID,916.748,VALID,0,VALID,100,VALID,0,VALID,19.002,VALID,141,VALID,0,
2009-07-15, 03:10:00,VALID,916.742,VALID,0,VALID,100,VALID,0,VALID,19.0544,VALID,142,VALID,0,
2009-07-15, 03:11:00,VALID,916.75,VALID,0,VALID,100,VALID,-0.0339617,VALID,19.0933,VALID,142,VALID,0,
2009-07-15, 03:12:00,VALID,916.749,VALID,0,VALID,100,VALID,-0.0169808,VALID,19.0509,VALID,142,VALID,0,
2009-07-15, 03:13:00,VALID,916.754,VALID,0,VALID,100,VALID,-0.0169808,VALID,19.0315,VALID,142,VALID,0,
2009-07-15, 03:14:00,VALID,916.77,VALID,0,VALID,100,VALID,-0.0169808,VALID,19.0312,VALID,142,VALID,0,
2009-07-15, 03:15:00,VALID,916.78,VALID,0,VALID,100,VALID,-0.0169808,VALID,19.0539,VALID,142,VALID,0,
2009-07-15, 03:16:00,VALID,916.77,VALID,0,VALID,100,VALID,-0.0169808,VALID,19.0674,VALID,142,VALID,0,
2009-07-15, 03:17:00,VALID,916.755,VALID,0,VALID,100,VALID,-0.0339617,VALID,19.0998,VALID,142,VALID,0,
2009-07-15, 03:18:00,VALID,916.727,VALID,0,VALID,100,VALID,-0.0509425,VALID,19.1587,VALID,160,VALID,0,
2009-07-15, 03:19:00,VALID,916.717,VALID,0,VALID,100,VALID,0,VALID,19.1872,VALID,187,VALID,0,
2009-07-15, 03:20:00,VALID,916.682,VALID,0,VALID,100,VALID,-0.0339617,VALID,19.2069,VALID,187,VALID,0,
2009-07-15, 03:21:00,VALID,916.671,VALID,0,VALID,100,VALID,-0.0169808,VALID,19.2201,VALID,187,VALID,0,
2009-07-15, 03:22:00,VALID,916.67,VALID,0,VALID,100,VALID,-0.0169808,VALID,19.1904,VALID,187,VALID,0,
2009-07-15, 03:23:00,VALID,916.673,VALID,0,VALID,100,VALID,-0.0169808,VALID,19.1844,VALID,187,VALID,0,
2009-07-15, 03:24:00,VALID,916.648,VALID,0,VALID,100,VALID,-0.0509425,VALID,19.1645,VALID,187,VALID,0,
2009-07-15, 03:25:00,VALID,916.656,VALID,0,VALID,100,VALID,-0.0509425,VALID,19.1455,VALID,187,VALID,0,
2009-07-15, 03:26:00,VALID,916.638,VALID,0,VALID,100,VALID,-0.0339617,VALID,19.0973,VALID,187,VALID,0,
2009-07-15, 03:27:00,VALID,916.643,VALID,0,VALID,100,VALID,-0.0849042,VALID,19.0183,VALID,187,VALID,0,
2009-07-15, 03:28:00,VALID,916.659,VALID,0,VALID,100,VALID,-0.0679233,VALID,18.9928,VALID,187,VALID,0,
2009-07-15, 03:29:00,VALID,916.668,VALID,0,VALID,100,VALID,-0.0339617,VALID,18.9504,VALID,187,VALID,0,
2009-07-15, 03:30:00,VALID,916.675,VALID,0,VALID,100,VALID,-0.0679233,VALID,18.9506,VALID,187,VALID,0,
2009-07-15, 03:31:00,VALID,916.691,VALID,0,VALID,100,VALID,-0.0169808,VALID,18.911,VALID,119,VALID,0,
2009-07-15, 03:32:00,VALID,916.699,VALID,0,VALID,100,VALID,-0.0169808,VALID,18.8753,VALID,51,VALID,0,
2009-07-15, 03:33:00,VALID,916.712,VALID,0,VALID,100,VALID,0,VALID,18.8621,VALID,51,VALID,0,
2009-07-15, 03:34:00,VALID,916.723,VALID,0,VALID,100,VALID,-0.0509425,VALID,18.8628,VALID,51,VALID,0,
2009-07-15, 03:35:00,VALID,916.711,VALID,0,VALID,100,VALID,-0.0339617,VALID,18.8723,VALID,51,VALID,0,
2009-07-15, 03:36:00,VALID,916.705,VALID,0,VALID,100,VALID,-0.0679233,VALID,18.9177,VALID,51,VALID,0,
2009-07-15, 03:37:00,VALID,916.697,VALID,0,VALID,100,VALID,-0.0169808,VALID,18.9272,VALID,51,VALID,0,
2009-07-15, 03:38:00,VALID,916.675,VALID,0,VALID,100,VALID,-0.0169808,VALID,18.9214,VALID,51,VALID,0,
2009-07-15, 03:39:00,VALID,916.665,VALID,0,VALID,100,VALID,0,VALID,18.9504,VALID,51,VALID,0,
2009-07-15, 03:40:00,VALID,916.644,VALID,0,VALID,100,VALID,0,VALID,18.9659,VALID,51,VALID,0,
2009-07-15, 03:41:00,VALID,916.623,VALID,0,VALID,100,VALID,-0.0169808,VALID,19.0118,VALID,51,VALID,0,
2009-07-15, 03:42:00,VALID,916.605,VALID,0,VALID,100,VALID,0,VALID,19.0277,VALID,51,VALID,0,
2009-07-15, 03:43:00,VALID,916.61,VALID,0,VALID,100,VALID,-0.0339617,VALID,19.0542,VALID,51,VALID,0,
2009-07-15, 03:44:00,VALID,916.601,VALID,0,VALID,100,VALID,-0.0169808,VALID,19.0801,VALID,51,VALID,0,
2009-07-15, 03:45:00,VALID,916.586,VALID,0,VALID,100,VALID,-0.0509425,VALID,19.1033,VALID,51,VALID,0,
2009-07-15, 03:46:00,VALID,916.581,VALID,0,VALID,100,VALID,-0.0169808,VALID,19.1156,VALID,51,VALID,0,
2009-07-15, 03:47:00,VALID,916.563,VALID,0,VALID,100,VALID,-0.0169808,VALID,19.1121,VALID,53,VALID,0,